TITAN 3C TRANSTAGE DEB, 3488

Orbit data source: Space-Track

TITAN 3C TRANSTAGE DEB, 3488 is space debris in LEO originally from a launch on Fri, 15 Oct 1965 UTC launched from the Air Force Eastern Test Range (AFETR). Debris objects in space refer to the collection of defunct objects orbiting the Earth. Examples of debris include non-operational satellites, rocket bodies, and fragments generated from explosions, collisions, or faulty payload assembly.

Loading next visibility...
Identifier
3488, 1965-082QJ
Orbit
LEO
Country
Flag of USUS
Related business
Manufacturer
Unknown
Mission
Spacecraft
Bus & Motor
Unknown
Mass
Unknown
Launch date (UTC)
1965-10-15 (61 years ago)
Launch vehicle
Unknown
Launch site
Air Force Eastern Test Range (AFETR)
Object type
Payload
Rocket body
Debris
Shape & HBR
Unknown shape, 0.2 m
Radar Cross Section
Medium (>0.1 m² and <1 m²)

Expand to show TLE details & history
Last TLE update: 1 day ago

TLE from 1 day ago
0 TITAN 3C TRANSTAGE DEB
1 03488U 65082QJ  26164.43006260  .00001580  00000-0  20396-3 0  9991
2 03488  32.2286  71.6512 0023119  68.5260 291.7854 14.78918538197369
Epoch: 2026-06-13T10:19Z
TLE epoch observation values (Epoch: 2026-06-13T10:19:17.408Z)
Latitude
-0.00004°
Longitude
15.08333°
Altitude
625.408 km
Speed
7.551 km/s
True Right ascension
04h 46m 36s
True Declination
0° 00' 00"
Sunlit
Object was in daylight at epoch
Visualization orbit readout
Latitude
Unknown
Longitude
Unknown
Altitude
Unknown
Speed
Unknown
Apparent Right ascension
Unknown
Apparent Declination
Unknown
Sunlit
N/A
Visualization observer readout
Local Sidereal Time
05:54:44
Azimuth
Unknown
Elevation
Unknown
Doppler factor
Unknown
Orbital elements
Apogee altitude
652.564 km
Perigee altitude
620.131 km
Semi-major axis
7,014.485 km
Eccentricity
0.00231
Inclination
32.2286°
RAAN
71.6512°
Arg. of periapsis
68.526°
True anomaly
291.53913°
Mean anomaly
291.7854°
Eccentric anomaly
291.66229°
Mean motion
3.69445 °/min
Orbital period
97.44 mins
BSTAR
0.00020396

Documentation

Showing up to 5 results
|